User: anonymous   Login
Location: Invercargill
(46.4000°S, 168.3500°E)
Time: 05:44:17
(UTC+13:00)
Language:

Atlas Centaur 2 - Orbit

View from above orbital plane
View from above orbital plane
View from above satellite
View from above satellite

Ground track
Ground track

The orbit data is extracted from the following two-line orbital elements,

1   694U 63047A   19286.92875042 +.00000277 +00000-0 +20645-4 0  9999
2   694 030.3570 173.6077 0586158 197.7383 160.1920 14.02521148802323
Epoch (UTC): 13 October 2019 22:17:24
Eccentricity: 0.0586158
inclination: 30.3570°
perigee height: 459 km
apogee height: 1311 km
right ascension of ascending node: 173.6077°
argument of perigee: 197.7383°
revolutions per day: 14.02521148
mean anomaly at epoch: 160.1920°
orbit number at epoch: 80232

The dashed part of the orbit path shows where the satellite is in the earth's shadow,  

DLR